Theta_e
311 312 313 317 321 320 321 323 323 326 327 330 328 327 326 324 324 325 326 325 323 322 321 321 318 314 312 310 309 309 311 313 322 327 331 332 332 330 327 327 329 331 333 333 330 327 325 327 326
310 311 316 318 317 320 321 321 322 325 327 327 325 324 324 324 325 325 323 323 322 321 320 317 311 308 307 306 306 306 306 308 310 319 327 332 332 331 330 327 327 329 330 331 330 328 326 329 326
309 315 318 318 318 317 320 320 321 325 326 326 325 322 321 323 323 323 322 320 319 316 313 310 307 306 306 306 306 305 306 306 306 308 315 327 331 332 330 329 327 327 329 330 330 327 327 330 328
317 317 316 315 318 319 318 319 322 324 325 325 323 321 321 322 322 322 319 314 313 313 308 306 306 306 306 306 306 305 305 305 305 306 306 309 325 330 331 330 328 327 327 329 330 328 327 330 332
315 317 318 319 319 319 319 319 320 322 322 321 321 318 319 320 318 316 314 310 309 309 307 306 306 306 306 306 306 306 305 305 305 306 306 306 308 323 329 330 329 328 326 327 330 329 328 329 333
318 316 318 318 319 320 319 319 319 319 320 319 318 317 318 321 316 314 312 310 309 308 307 306 306 306 306 305 305 305 305 305 305 305 306 306 306 312 326 328 329 328 327 325 327 330 330 332 333
318 320 318 318 317 317 319 318 318 318 319 319 318 316 318 317 314 314 310 310 309 308 307 306 305 305 305 304 303 302 302 302 303 304 305 306 306 308 316 323 327 329 328 327 326 327 331 333 330
315 316 316 317 317 318 318 317 317 317 317 316 316 315 315 317 314 310 309 309 310 309 307 306 305 305 304 304 304 303 302 301 300 302 303 304 306 309 315 320 324 326 327 327 326 326 327 328 326
315 314 316 318 317 318 316 316 317 316 315 315 315 314 313 315 314 308 308 308 309 309 308 307 306 305 304 305 305 305 304 303 301 300 300 303 304 307 308 315 324 324 325 327 327 327 327 328 325
315 317 318 315 314 315 315 315 315 314 314 314 315 314 313 311 309 309 310 311 312 312 311 308 306 305 305 305 305 305 305 304 302 299 299 300 302 304 309 311 315 323 323 326 326 327 325 323 322
315 315 315 314 313 312 313 313 313 313 312 313 313 313 313 312 310 310 309 309 311 311 310 308 306 306 305 305 305 305 305 304 301 300 299 298 300 303 315 314 318 322 323 325 324 324 323 322 322
312 314 313 313 312 312 313 311 311 312 312 311 311 310 311 312 311 311 310 310 311 311 309 309 308 306 306 305 305 305 305 303 301 299 298 298 298 301 308 315 318 321 321 323 324 321 321 319 320
312 312 312 312 311 310 310 309 309 310 310 310 311 310 310 311 311 310 310 310 309 307 306 306 307 306 306 305 305 305 304 302 300 298 297 300 298 300 309 313 317 319 322 323 323 321 319 319 320
312 311 311 311 311 310 309 309 309 310 310 310 310 310 309 309 310 310 310 309 309 309 308 306 306 305 305 305 304 303 302 300 298 297 297 301 299 300 313 315 317 318 318 320 323 321 317 317 319
311 310 311 310 310 310 309 310 309 310 311 310 310 309 309 309 309 309 309 310 310 309 307 304 303 303 303 303 303 302 300 298 296 297 300 303 301 301 312 313 316 318 319 320 322 322 320 320 318
311 312 313 312 311 311 310 311 312 311 311 310 310 310 309 309 309 309 309 309 309 307 305 303 302 302 302 302 301 300 298 296 298 300 303 304 301 307 310 313 314 316 320 320 321 321 322 321 319
313 313 315 312 311 310 309 311 309 309 309 310 310 310 310 310 310 310 308 308 307 305 303 302 301 301 301 301 300 298 298 302 303 302 303 303 301 308 309 312 313 317 319 319 319 319 321 320 317
316 315 314 312 310 308 308 309 310 312 310 310 310 310 311 310 308 309 308 307 305 304 303 302 301 301 300 300 298 297 302 303 303 304 305 305 306 307 310 311 312 316 318 318 317 319 319 319 318
311 310 310 310 308 307 308 309 311 313 312 310 310 310 310 310 308 308 307 306 304 304 303 302 301 300 300 299 296 297 302 302 303 305 304 306 306 307 308 311 314 314 318 318 318 315 318 319 318
311 310 311 312 308 307 309 309 310 308 309 309 309 309 309 309 308 307 306 305 304 304 303 301 300 300 299 298 296 302 302 302 302 304 305 306 307 306 308 310 313 313 315 317 318 319 319 318 318
310 311 311 310 309 309 308 311 308 308 309 308 308 309 309 308 308 307 306 305 305 304 303 301 299 299 298 296 298 302 302 302 302 303 305 306 306 307 309 310 313 314 314 317 317 316 317 317 316
311 308 309 310 310 314 310 311 314 308 308 308 309 308 308 308 308 308 307 306 305 304 302 300 299 298 296 296 301 302 302 301 303 304 305 306 307 307 309 310 311 314 314 316 317 316 317 317 316
310 308 309 309 311 310 312 309 311 307 307 308 306 309 309 309 308 307 306 305 304 302 300 299 298 297 295 299 302 302 301 302 303 304 305 307 308 309 309 309 311 312 314 315 316 315 317 317 316
308 309 309 309 311 314 313 308 312 307 308 306 306 308 308 307 307 307 306 304 302 302 299 298 298 296 296 302 302 302 301 302 303 303 304 307 308 310 310 311 312 313 315 316 315 316 317 316 316
308 311 317 317 316 316 308 307 309 310 307 305 304 306 307 307 306 306 305 304 303 302 299 298 297 296 299 302 302 303 302 302 303 303 305 308 309 310 311 312 313 314 314 315 315 316 317 317 316
308 311 318 316 323 318 305 309 314 308 306 307 308 307 307 307 306 306 305 304 304 301 299 298 297 297 301 301 302 303 303 303 303 304 306 308 310 311 312 312 313 313 313 313 316 318 317 316 316
307 305 308 309 302 313 314 312 311 306 306 306 306 306 306 306 306 306 305 304 303 301 299 298 297 300 301 301 302 303 303 304 305 305 308 309 311 311 312 312 313 314 314 312 314 316 317 318 317
305 304 306 310 313 318 319 316 314 308 306 305 305 306 307 307 306 305 305 304 302 301 299 298 298 301 301 302 301 302 303 305 305 307 308 310 311 312 313 313 315 315 313 313 315 316 317 317 317
303 305 305 309 311 318 317 319 316 312 307 306 305 308 308 307 306 306 306 304 302 301 299 298 299 301 302 301 301 302 304 306 306 308 311 312 312 313 314 314 316 316 312 314 317 318 318 318 318
303 307 307 314 314 308 313 314 310 308 308 309 309 309 308 306 305 306 305 304 303 301 299 298 300 301 302 300 301 303 304 306 308 310 312 312 314 315 316 317 312 312 315 316 317 318 319 318 318
Wind_Speed
5 5 2 2 2 3 8 1 7 4 2 6 5 4 4 5 4 1 8 4 2 3 8 12 14 16 17 17 15 13 12 11 12 11 11 12 13 14 13 13 14 15 17 15 12 13 15 15 15
3 4 1 5 2 4 2 7 6 8 11 8 3 2 3 2 6 4 4 5 5 8 11 12 15 15 15 15 16 15 14 13 13 13 12 10 13 14 15 16 15 16 17 17 15 16 16 19 18
1 2 5 3 4 6 3 6 6 10 6 1 1 1 2 3 5 7 9 5 5 10 13 13 13 13 13 14 14 14 15 14 14 16 15 11 10 14 16 17 17 18 18 19 18 18 20 21 25
3 3 6 3 9 2 4 6 7 7 3 1 3 5 4 6 7 7 8 6 8 10 11 11 12 11 12 13 14 14 15 15 15 15 16 17 13 13 16 18 18 20 20 20 19 19 22 25 29
3 6 4 5 9 2 5 4 2 4 3 6 5 3 3 7 10 8 7 6 6 9 11 12 11 11 11 12 13 13 14 15 16 16 16 16 16 14 14 17 19 20 22 21 19 22 25 30 33
5 3 4 6 4 5 3 3 1 4 4 5 1 10 2 5 5 7 7 6 9 9 12 12 11 11 12 13 13 14 15 15 16 16 17 17 16 15 15 16 18 18 21 20 18 20 25 42 43
3 3 7 7 8 4 5 5 3 6 7 6 6 4 1 6 6 8 7 8 12 11 11 12 12 12 13 13 13 15 16 17 17 17 17 17 16 15 17 17 20 19 21 23 18 20 21 10 27
4 2 6 5 2 3 5 1 2 5 2 2 4 3 1 7 8 9 9 10 11 12 13 11 12 15 15 16 18 16 16 17 17 18 18 17 15 15 15 15 16 17 19 20 21 21 20 24 14
3 3 5 6 4 3 8 1 7 3 5 2 4 7 5 8 9 9 10 11 11 12 13 12 13 14 15 16 19 20 22 21 20 19 18 18 17 16 16 14 12 12 15 16 19 17 17 25 27
3 3 5 3 5 5 7 3 9 2 7 10 14 13 15 14 12 11 10 10 9 12 16 17 14 17 17 17 19 21 21 22 22 20 18 17 17 17 13 11 14 11 12 14 11 12 5 17 22
3 4 5 8 7 5 5 7 8 4 7 11 10 10 18 16 11 12 12 11 11 13 14 17 18 18 19 20 20 21 22 23 24 23 20 18 17 16 9 9 9 11 11 15 10 12 17 17 17
4 10 3 4 1 3 3 6 6 14 12 8 6 6 9 12 13 12 13 12 10 13 15 15 19 21 20 21 19 22 23 24 23 22 18 16 15 15 11 8 11 9 9 16 19 12 16 12 13
5 5 2 6 6 9 8 11 9 20 18 12 13 11 12 12 12 12 14 13 14 14 14 14 19 22 20 21 20 21 23 24 24 21 17 14 14 13 10 10 9 12 8 13 22 20 20 17 24
4 8 11 6 9 8 5 6 3 5 7 11 19 16 15 15 14 13 14 14 14 14 16 17 18 21 20 19 18 21 23 24 21 18 14 13 13 10 7 8 9 10 13 9 20 21 21 20 32
5 5 7 11 7 3 3 8 11 18 7 6 9 13 16 16 14 15 14 15 14 17 17 17 17 18 16 16 18 21 22 22 18 15 11 11 11 8 7 9 8 8 9 8 15 19 31 28 23
3 3 3 3 4 2 0 7 4 9 10 9 11 12 11 13 15 12 13 13 17 16 15 15 15 15 15 16 18 20 20 17 14 10 9 9 7 5 6 7 9 9 6 7 19 29 38 28 37
5 5 5 5 3 2 6 7 4 7 10 11 12 15 15 12 12 11 10 17 15 12 12 13 13 13 14 16 17 17 16 14 10 9 8 12 3 4 4 6 10 9 9 12 12 16 33 40 39
2 5 2 4 4 5 8 18 16 24 21 19 16 16 15 14 12 12 16 16 10 11 11 12 13 13 14 16 16 15 12 10 10 7 7 4 1 3 5 4 5 10 8 12 14 17 33 40 41
4 6 8 8 3 1 8 14 12 13 4 5 8 11 15 14 11 14 12 10 10 10 11 12 13 13 14 14 15 14 14 12 8 6 4 1 1 3 6 7 3 8 8 11 14 17 19 34 33
3 6 6 2 3 1 8 18 15 4 4 2 2 1 6 12 12 11 9 9 8 10 12 12 13 13 13 13 12 13 11 7 6 3 4 2 3 4 6 8 4 7 8 8 14 23 28 38 30
5 5 3 3 8 6 8 7 3 2 4 5 3 4 8 12 9 8 7 8 8 11 11 13 12 11 12 11 10 10 8 4 5 4 3 3 3 4 7 8 8 6 11 8 11 14 32 38 36
4 3 3 4 6 3 2 5 4 5 5 5 9 6 8 9 9 7 6 8 9 12 11 11 10 10 10 9 8 8 6 2 2 4 3 2 1 3 7 7 9 7 15 8 11 9 32 37 38
1 2 3 2 2 4 3 1 5 4 5 6 7 10 8 7 6 6 8 11 13 11 9 10 10 9 8 7 7 6 4 2 1 4 4 2 1 4 6 7 6 10 11 12 9 8 27 36 41
5 2 2 0 1 1 1 2 5 3 5 7 8 10 9 9 9 10 11 9 10 8 8 8 8 8 7 7 6 6 3 1 1 1 3 1 2 2 5 6 6 5 15 16 11 7 25 41 32
3 1 3 4 2 5 1 0 8 2 5 7 9 13 12 10 9 8 8 7 9 10 7 8 7 6 6 6 6 5 3 0 1 3 4 1 3 4 5 5 6 5 17 18 12 12 20 24 30
6 3 4 5 3 3 3 5 5 4 9 9 11 14 12 11 8 9 8 9 10 9 7 7 6 5 5 6 6 5 2 1 3 3 4 3 2 4 5 4 7 6 15 16 14 15 19 18 27
5 4 2 5 1 3 4 6 1 4 4 6 9 11 12 8 7 7 8 9 10 8 5 5 5 4 5 6 5 3 1 2 3 2 3 2 3 7 9 9 7 6 14 19 13 16 15 17 28
2 2 3 1 3 4 4 4 5 5 7 8 8 13 11 9 8 8 9 9 10 8 5 3 3 4 6 5 2 1 2 2 1 2 2 3 5 6 8 7 7 10 18 14 13 20 16 23 26
3 2 4 0 3 5 1 5 4 5 9 10 9 15 13 12 9 6 7 9 9 7 5 3 3 3 6 4 2 0 4 3 2 2 1 2 5 6 4 4 8 13 19 15 16 14 15 19 17
3 3 6 4 5 1 2 6 2 5 2 8 16 16 14 13 11 5 8 10 9 7 5 2 2 3 4 2 1 3 7 5 3 3 3 5 6 2 6 11 18 21 16 17 16 13 16 16 15
Wind_Direction
298 346 5 331 245 215 264 254 65 125 158 74 55 14 16 318 357 288 187 181 177 282 304 314 318 316 314 312 309 302 294 291 289 284 293 285 276 266 256 249 251 250 241 238 235 233 228 224 194
309 95 348 255 237 236 255 62 126 55 95 97 113 258 233 125 93 154 191 238 269 281 288 303 307 309 310 311 309 306 299 289 284 279 279 291 273 264 263 255 250 250 251 249 246 236 228 218 200
115 84 266 211 228 252 27 64 61 80 100 194 105 221 322 83 137 152 217 240 282 282 293 307 309 309 311 311 311 310 307 300 290 280 275 270 283 271 258 256 252 250 255 254 249 236 229 220 203
63 249 256 267 265 307 28 63 50 110 116 192 319 277 164 198 156 195 229 262 272 276 293 310 309 315 317 319 319 317 314 311 305 294 283 276 271 272 269 259 252 248 248 252 252 237 235 227 209
5 277 269 229 256 129 93 50 15 202 144 164 181 236 176 208 231 233 267 262 256 268 301 308 312 317 320 320 318 316 313 310 306 301 295 284 272 266 271 269 257 250 248 249 250 240 236 231 214
268 247 275 254 323 120 105 68 198 254 245 135 321 256 255 196 258 231 234 267 270 279 301 309 316 320 321 323 323 322 319 315 309 304 300 295 285 266 263 262 265 254 250 251 258 253 243 235 207
256 292 263 295 308 354 59 74 240 253 232 206 176 309 167 240 221 224 238 253 277 287 302 309 316 321 323 327 333 327 322 315 311 306 300 296 290 278 265 263 262 260 253 249 250 255 262 166 161
308 283 272 257 307 12 80 99 313 339 309 111 136 227 340 208 230 227 263 270 277 292 305 310 321 327 329 331 325 326 324 319 314 305 301 296 291 276 274 267 268 263 264 256 253 251 267 199 186
268 279 269 332 42 74 122 244 148 239 282 259 234 243 269 205 237 258 274 281 291 300 307 309 313 312 316 319 316 325 327 329 324 316 304 295 288 281 273 265 263 260 257 261 249 258 269 236 223
244 262 339 14 16 353 348 174 300 232 252 231 232 244 247 262 254 266 275 284 292 302 309 305 304 305 306 309 314 319 322 325 323 319 307 295 288 287 283 276 262 263 248 250 238 224 217 173 152
233 239 37 31 19 354 315 305 244 236 260 251 232 244 226 244 257 257 265 270 281 286 275 285 294 294 299 303 312 313 316 321 322 318 311 303 288 288 288 266 262 253 246 231 206 190 201 202 180
276 244 5 331 351 288 261 328 279 245 238 294 243 224 211 229 247 254 270 276 267 263 279 289 288 294 296 301 305 308 315 318 317 313 309 303 291 284 271 265 240 251 240 223 220 204 160 211 204
224 295 349 268 279 265 275 261 250 269 254 252 254 233 223 222 238 251 257 259 265 278 287 282 281 292 295 298 303 307 311 314 314 312 310 303 295 282 273 247 254 244 251 227 219 209 219 191 183
1 308 281 277 263 255 254 268 303 248 192 239 229 242 250 227 239 247 255 266 276 289 291 292 288 294 296 298 304 306 311 312 310 308 308 299 285 287 271 256 251 249 252 234 216 212 205 191 170
289 292 245 221 233 284 323 273 226 239 234 196 219 238 233 235 243 249 256 260 264 272 284 292 295 297 299 302 303 306 308 307 310 312 310 298 294 268 263 242 242 245 247 236 221 217 183 172 188
247 223 283 91 153 193 37 276 152 167 190 216 232 230 223 223 240 251 257 261 263 277 284 296 298 299 302 302 304 308 309 309 311 311 301 287 280 257 255 245 221 229 215 225 195 191 180 179 172
201 266 212 153 194 354 194 280 160 200 201 222 239 226 219 218 235 241 250 256 270 276 289 297 302 306 308 308 313 316 321 324 317 297 293 274 260 277 241 232 235 223 205 212 180 182 173 168 163
313 254 298 246 162 208 257 258 268 259 224 222 229 239 233 214 216 220 235 252 267 284 295 302 307 309 313 315 321 323 322 301 305 290 278 320 318 294 227 235 240 203 196 187 179 176 163 158 156
334 307 295 296 128 19 254 269 273 274 285 319 286 271 240 230 203 219 243 255 268 283 297 306 314 314 316 320 321 321 319 315 311 302 299 277 268 280 219 230 237 199 173 196 193 173 185 166 162
271 283 286 295 84 96 291 288 285 97 100 90 294 263 197 178 185 226 236 259 277 290 303 304 310 315 316 318 320 325 324 327 331 360 9 339 247 211 208 221 190 191 176 182 197 193 188 180 182
226 245 346 320 326 240 290 272 173 121 131 150 202 92 147 172 196 212 226 263 278 290 298 303 309 314 315 320 326 323 321 340 347 356 352 290 243 179 197 202 188 186 186 179 180 183 189 176 172
255 28 52 329 17 285 18 284 261 154 179 192 174 175 170 168 176 196 226 255 269 274 294 298 309 318 317 320 325 324 336 351 13 3 332 333 1 215 211 194 208 183 189 171 188 203 190 179 171
143 34 50 14 306 356 217 239 258 129 202 193 179 182 177 184 204 216 240 235 256 283 296 308 317 324 320 326 332 324 333 337 76 349 331 290 257 219 219 211 213 195 196 191 179 174 186 181 175
134 145 123 57 15 342 197 144 281 187 219 142 165 170 178 182 195 205 235 255 273 292 301 310 321 326 324 335 331 316 332 316 166 319 306 333 249 241 197 217 218 218 193 170 180 205 192 180 182
241 109 358 345 7 228 111 72 250 193 106 154 169 177 180 186 196 223 248 263 278 295 312 317 323 324 321 328 328 329 323 345 271 293 290 157 201 213 209 225 211 225 195 190 182 201 185 192 190
188 169 167 212 224 273 7 243 261 79 116 115 158 170 178 185 193 216 242 248 264 278 297 315 318 322 319 321 327 323 343 268 282 298 306 317 214 201 236 252 252 252 204 192 196 178 180 181 186
193 186 166 104 62 38 220 261 180 132 148 182 187 185 191 191 198 237 252 253 265 276 291 312 308 317 311 328 318 301 194 288 258 360 306 305 228 214 246 256 257 242 186 192 189 194 184 175 182
270 323 98 339 163 245 282 266 237 218 208 205 201 204 199 190 203 220 253 250 255 270 290 318 299 300 322 336 345 299 170 215 308 59 328 289 275 240 253 260 248 192 171 185 179 187 188 176 181
171 216 225 142 175 176 229 261 211 154 184 192 194 200 196 200 198 222 259 248 249 256 275 322 310 308 351 344 339 131 132 138 140 104 81 294 285 280 256 203 172 172 173 177 178 199 191 178 185
328 226 188 149 219 247 150 272 140 118 102 149 181 170 188 201 198 215 246 242 244 242 253 288 294 313 346 328 41 108 134 129 122 92 41 2 353 47 117 125 135 143 161 170 175 187 190 189 191